Flag for Russia Weather past 2 weeks in Saint-Petersburg, Russia

Now
25 °F

Partly cloudy.


Feels Like: 18 °F
Forecast: 33 / 38 °F
Wind: 6 mph from Southwest

Location: St. Petersburg

Current Time: Mar 6, 2015 at 8:59:15 AM

Latest Report: Mar 6, 2015 at 8:30 AM


Visibility: N/A

Pressure: 30.33 "Hg

Humidity: 93%

Dew point: 23 °F

Location of Saint-PetersburgLocation

Historic Weather in Saint-Petersburg — Graph

°F

Saint-Petersburg temperature yesterday

Maximum temperature yesterday: 43 °F (at 2:00 PM)
Minimum temperature yesterday: 27 °F (at 7:00 AM)
Average temperature yesterday: 32 °F

Past Weeks' High & Low Weather Summary

 TemperatureHumidityPressure
High43 °F (Mar 5, 2:00 PM)100% (Feb 19, 8:00 PM)30.36 "Hg (Feb 19, 8:00 PM)
Low23 °F (Mar 6, 7:00 AM)61% (Feb 23, 3:30 PM)29.42 "Hg (Feb 22, 6:30 AM)
Average35 °F89%29.86 "Hg
* Reported Feb 19 7:00 AM — Mar 6 7:30 AM, Saint-Petersburg, Weather by CustomWeather, © 2015

Note: Actual official high and low records may vary slightly from our data, if they occured in-between our weather recording intervals... More about our weather records

Advertising

Saint-Petersburg weather history for previous 24 hours

 ConditionsComfort  
Time TempWeatherWind HumidityBarometerVisibility
7:30 AM
Fri, Mar 6
25 °FClear.3 mph93%30.33 "Hg10 mi
7:00 AM23 °FPassing clouds.1 mph100%30.33 "Hg5 mi
6:30 AM25 °FPassing clouds.1 mph93%30.33 "Hg5 mi
6:00 AM25 °FPassing clouds.1 mph100%30.33 "Hg5 mi
5:30 AM25 °FPassing clouds.1 mph100%30.33 "Hg5 mi
5:00 AM25 °FPassing clouds.1 mph100%30.36 "Hg5 mi
4:30 AM25 °FPassing clouds.3 mph100%30.33 "Hg4 mi
4:00 AM25 °FPassing clouds.1 mph100%30.36 "Hg4 mi
3:30 AM27 °FIce fog.1 mph100%30.33 "Hg2 mi
3:00 AM27 °FIce fog.1 mph100%30.36 "Hg2 mi
2:30 AM27 °FIce fog.1 mph93%30.36 "Hg2 mi
2:00 AM25 °FIce fog.1 mph100%30.36 "Hg2 mi
1:30 AM25 °FIce fog.3 mph100%30.36 "Hg3 mi
1:00 AM27 °FIce fog.3 mph93%30.36 "Hg3 mi
12:30 AM27 °FClear.6 mph93%30.36 "Hg4 mi
11:30 PM
Thu, Mar 5
27 °FClear.6 mph100%30.36 "Hg4 mi
11:00 PM27 °FIce fog.3 mph100%30.36 "Hg3 mi
10:30 PM28 °FClear.6 mph93%30.33 "Hg4 mi
10:00 PM28 °FClear.6 mph93%30.33 "Hg4 mi
9:30 PM28 °FClear.6 mph93%30.33 "Hg4 mi
9:00 PM28 °FClear.3 mph93%30.33 "Hg10 mi
8:30 PM28 °FClear.3 mph100%30.33 "Hg10 mi
8:00 PM30 °FPassing clouds.3 mph93%30.33 "HgN/A
7:30 PM30 °FScattered clouds.6 mph93%30.33 "HgN/A
7:00 PM32 °FScattered clouds.6 mph87%30.30 "HgN/A
6:30 PM34 °FScattered clouds.6 mph81%30.30 "HgN/A
6:00 PM36 °FScattered clouds.8 mph75%30.30 "HgN/A
5:30 PM37 °FScattered clouds.8 mph75%30.27 "HgN/A
5:00 PM39 °FBroken clouds.8 mph70%30.27 "HgN/A
4:30 PM39 °FBroken clouds.6 mph70%30.27 "HgN/A
4:00 PM41 °FBroken clouds.6 mph70%30.27 "HgN/A
3:30 PM39 °FBroken clouds.6 mph75%30.24 "HgN/A
3:00 PM41 °FScattered clouds.8 mph70%30.24 "HgN/A
2:30 PM43 °FScattered clouds.3 mph61%30.24 "HgN/A
2:00 PM43 °FScattered clouds.3 mph61%30.24 "HgN/A
1:30 PM41 °FScattered clouds.1 mph66%30.24 "HgN/A
1:00 PM41 °FScattered clouds.1 mph66%30.24 "HgN/A
12:30 PM39 °FSunny.No wind75%30.24 "Hg10 mi
12:00 PM36 °FSunny.No wind81%30.21 "Hg10 mi
11:30 AM36 °FSunny.No wind81%30.21 "Hg10 mi
11:00 AM36 °FSunny.No wind81%30.21 "Hg10 mi
10:30 AM34 °FSunny.No wind81%30.21 "Hg10 mi
10:00 AM30 °FSunny.1 mph93%30.18 "Hg10 mi
9:30 AM27 °FSunny.No wind93%30.18 "Hg10 mi
9:00 AM27 °FSunny.1 mph100%30.18 "Hg10 mi
8:30 AM27 °FClear.1 mph93%30.15 "Hg10 mi
8:00 AM27 °FClear.No wind93%30.15 "Hg10 mi
Weather by CustomWeather, © 2015

See weather overviewHow to use our weather pages